GEFSMA_prec_meanprecacc_180.txt.gz
Total_Precipitation_Accumulation
1.99 2.08 2.05 2.00 1.89 2.22 2.64 2.86 2.57 2.85 2.86 2.47 2.16 2.04 2.00 1.96 2.14 2.34 2.22 2.38 2.30 2.26 2.47 2.52 2.32 2.07 1.90 1.61 1.38 1.19 1.03 0.99 0.92 0.75 0.63 0.59 0.52 0.46 0.45 0.46 0.45 0.41 0.38
2.47 2.52 2.38 2.31 2.09 2.10 2.39 2.61 2.61 2.84 2.73 2.58 2.01 1.90 1.86 2.01 2.18 2.21 2.23 2.70 2.64 2.41 2.41 2.54 2.56 2.40 2.23 2.10 1.79 1.52 1.32 1.21 1.10 0.86 0.68 0.62 0.58 0.52 0.48 0.50 0.54 0.49 0.38
2.93 2.81 2.59 2.29 2.17 2.23 2.36 2.35 2.37 2.47 2.34 2.25 2.02 2.08 2.06 1.97 1.87 1.90 2.05 2.28 2.23 2.05 2.04 2.15 2.37 2.52 2.66 2.66 2.45 2.28 1.84 1.46 1.23 0.97 0.76 0.62 0.54 0.48 0.46 0.49 0.55 0.54 0.41
2.83 2.76 2.44 2.10 2.15 2.26 2.27 2.25 2.11 2.20 2.23 2.29 2.28 2.12 2.18 2.07 1.69 1.66 1.73 1.70 1.81 1.65 1.81 1.90 2.01 2.22 2.66 3.06 3.18 3.05 2.59 1.92 1.45 1.14 0.93 0.74 0.60 0.50 0.45 0.46 0.52 0.52 0.40
2.64 2.69 2.37 2.25 2.16 2.19 2.08 1.93 2.15 2.27 2.29 2.32 2.16 2.04 1.84 1.65 1.41 1.26 1.25 1.14 1.30 1.48 1.66 1.71 1.76 1.85 2.33 3.06 3.67 3.84 3.48 2.70 2.01 1.54 1.31 1.09 0.89 0.68 0.54 0.50 0.49 0.44 0.37
2.27 2.38 2.17 2.10 2.17 2.22 2.06 2.06 2.25 2.26 2.05 2.15 1.97 1.81 1.58 1.32 1.18 1.07 0.93 0.93 0.90 0.87 1.09 1.44 1.73 1.47 1.81 2.42 3.07 3.55 3.80 3.45 2.74 2.20 1.79 1.47 1.24 1.00 0.72 0.61 0.54 0.48 0.41
1.92 2.14 1.97 2.11 2.08 2.00 1.83 1.80 1.89 1.89 1.67 1.93 2.13 1.72 1.29 1.07 0.96 0.84 0.82 0.88 0.81 0.87 1.07 1.37 1.57 1.65 1.53 1.56 1.89 2.41 3.23 3.63 3.36 2.82 2.36 1.95 1.65 1.37 1.00 0.80 0.69 0.58 0.51
1.97 1.81 1.90 1.81 1.79 1.85 1.65 1.55 1.70 1.71 1.49 1.74 1.87 1.85 1.36 1.13 0.94 0.65 0.69 0.71 0.79 0.98 0.99 1.07 1.34 1.50 1.41 1.73 1.44 1.46 2.20 2.90 3.35 3.28 2.85 2.33 1.94 1.62 1.31 1.09 0.89 0.70 0.59
2.21 2.05 1.89 1.73 1.69 1.57 1.55 1.51 1.57 1.60 1.53 1.48 1.53 1.70 1.39 1.11 0.94 0.64 0.56 0.62 0.84 1.05 1.00 1.09 1.13 1.29 1.34 1.57 1.62 1.49 1.51 1.89 2.61 3.35 3.39 2.82 2.16 1.64 1.34 1.29 1.21 0.96 0.76
2.49 2.20 1.99 1.78 1.56 1.41 1.53 1.29 1.36 1.55 1.63 1.40 1.35 1.31 1.26 1.37 1.36 1.03 0.69 0.56 0.78 0.90 0.93 0.90 0.99 1.23 1.37 1.55 1.71 1.74 1.52 1.45 1.88 2.71 3.25 3.17 2.66 2.04 1.62 1.54 1.73 1.64 1.20
2.28 2.00 1.86 1.76 1.51 1.31 1.30 1.31 1.48 1.46 1.44 1.34 1.35 1.32 1.39 1.51 1.39 1.30 1.04 0.88 0.87 0.76 0.73 0.78 0.94 1.14 1.29 1.55 1.86 1.89 1.98 1.70 1.58 1.80 2.24 2.53 2.65 2.42 2.08 2.02 2.40 2.62 2.25
1.93 1.80 1.67 1.62 1.46 1.32 1.31 1.27 1.36 1.41 1.45 1.48 1.46 1.44 1.49 1.45 1.44 1.59 1.40 1.21 1.10 0.89 0.82 0.93 1.08 1.23 1.35 1.50 1.55 1.70 1.76 1.77 1.68 1.62 1.67 1.82 2.05 2.23 2.29 2.37 2.66 2.99 3.10
1.50 1.51 1.57 1.59 1.44 1.37 1.40 1.50 1.47 1.40 1.43 1.51 1.48 1.53 1.56 1.48 1.56 1.71 1.68 1.45 1.33 1.21 1.24 1.21 1.19 1.35 1.33 1.48 1.64 1.51 1.31 1.37 1.38 1.35 1.34 1.33 1.43 1.67 1.85 1.95 2.27 2.63 2.95
1.40 1.45 1.60 1.63 1.52 1.42 1.36 1.54 1.51 1.52 1.58 1.56 1.47 1.67 1.69 1.52 1.67 1.86 1.93 1.92 1.75 1.67 1.69 1.63 1.37 1.31 1.34 1.44 1.57 1.44 1.29 1.22 0.99 0.89 0.89 0.94 0.98 1.10 1.23 1.39 1.59 1.78 2.05
1.51 1.58 1.62 1.72 1.74 1.74 1.69 1.72 1.62 1.66 1.83 1.82 1.75 1.80 1.80 1.70 1.75 1.86 2.01 2.12 2.14 2.05 1.96 1.85 1.54 1.38 1.33 1.32 1.41 1.40 1.52 1.36 0.95 0.76 0.68 0.68 0.68 0.73 0.81 0.95 1.10 1.26 1.40
1.63 1.65 1.63 1.66 1.71 1.75 1.74 1.80 1.78 1.83 1.98 1.98 2.03 2.12 2.05 1.88 1.92 1.95 2.02 2.17 2.33 2.37 2.15 1.86 1.64 1.46 1.39 1.24 1.30 1.23 1.30 1.19 0.87 0.74 0.65 0.61 0.58 0.59 0.65 0.72 0.81 0.95 1.06
1.57 1.60 1.59 1.55 1.51 1.56 1.73 1.87 1.85 1.93 2.00 2.03 2.03 2.01 1.95 1.97 2.03 1.92 1.98 2.07 2.21 2.38 2.20 1.95 1.81 1.73 1.68 1.59 1.46 1.21 1.05 0.95 0.83 0.82 0.70 0.61 0.59 0.60 0.60 0.63 0.67 0.75 0.86
1.54 1.55 1.54 1.50 1.45 1.54 1.76 1.88 1.94 2.13 2.20 2.12 2.04 1.99 1.88 1.95 2.03 1.97 2.00 1.96 2.02 2.27 2.23 2.10 2.03 2.04 1.95 1.76 1.65 1.46 1.16 1.03 1.00 0.99 0.86 0.71 0.62 0.61 0.60 0.60 0.65 0.69 0.76
1.49 1.49 1.52 1.57 1.68 1.79 1.95 2.04 2.10 2.22 2.20 2.11 2.11 2.03 1.90 1.93 1.91 1.98 2.03 2.01 1.96 2.01 2.15 2.11 2.05 2.14 2.07 1.86 1.73 1.56 1.41 1.46 1.29 1.08 0.93 0.79 0.70 0.65 0.64 0.60 0.64 0.72 0.84
1.32 1.38 1.57 1.81 1.97 2.07 2.13 2.18 2.17 2.15 2.11 1.98 1.88 1.78 1.77 1.85 1.92 1.93 1.85 1.85 1.87 1.94 2.00 2.02 2.03 2.13 2.16 2.09 1.93 1.78 1.74 1.71 1.55 1.16 1.04 0.91 0.83 0.74 0.67 0.61 0.61 0.73 0.87
1.35 1.53 1.71 1.83 1.85 1.88 1.94 2.06 2.07 2.03 1.97 1.84 1.70 1.49 1.44 1.64 1.76 1.77 1.63 1.71 1.77 1.81 1.84 1.91 1.97 2.08 2.14 2.26 2.08 1.84 1.79 1.86 1.77 1.58 1.43 1.22 1.08 0.98 0.93 0.86 0.77 0.75 0.78
1.53 1.68 1.72 1.70 1.64 1.40 1.47 1.59 1.65 1.69 1.69 1.64 1.50 1.41 1.38 1.41 1.37 1.35 1.32 1.33 1.41 1.52 1.69 1.92 2.02 2.04 2.03 2.13 2.22 2.13 2.06 2.02 1.98 1.90 1.94 1.82 1.52 1.43 1.34 1.23 1.10 0.87 0.74
1.69 1.73 1.73 1.64 1.55 1.52 1.42 1.29 1.27 1.33 1.44 1.46 1.47 1.52 1.31 1.17 1.27 1.25 1.30 1.25 1.20 1.24 1.36 1.61 1.82 1.86 1.96 1.99 2.24 2.27 2.30 2.37 2.34 2.29 2.30 2.30 1.97 1.70 1.48 1.40 1.29 1.00 0.82
1.88 1.85 1.83 1.76 1.74 1.68 1.56 1.33 1.23 1.20 1.38 1.44 1.45 1.48 1.47 1.40 1.38 1.44 1.46 1.38 1.24 1.20 1.18 1.17 1.37 1.63 1.85 2.08 2.14 2.20 2.30 2.37 2.36 2.22 2.19 2.27 2.13 1.97 1.65 1.36 1.23 1.06 0.88
1.98 1.93 1.95 1.92 1.89 1.89 1.71 1.39 1.25 1.26 1.45 1.50 1.50 1.48 1.46 1.42 1.44 1.30 1.27 1.29 1.28 1.25 1.09 1.09 1.17 1.37 1.53 1.61 1.82 2.04 2.21 2.16 2.07 1.86 1.69 1.78 1.84 1.86 1.82 1.61 1.27 1.14 0.96
2.06 2.02 1.99 1.96 1.91 1.91 1.83 1.39 1.19 1.22 1.43 1.50 1.57 1.55 1.43 1.31 1.28 1.15 1.14 1.27 1.26 1.23 1.23 1.17 1.08 1.10 1.17 1.29 1.36 1.41 1.68 1.86 1.77 1.68 1.45 1.36 1.34 1.43 1.56 1.43 1.22 1.15 1.13

GEFSMA_prec_meanprecacc_186.txt.gz
Total_Precipitation_Accumulation
2.00 2.10 2.07 2.03 1.91 2.24 2.65 2.88 2.59 2.87 2.89 2.50 2.18 2.06 2.03 2.00 2.19 2.39 2.25 2.42 2.32 2.27 2.48 2.53 2.33 2.09 1.92 1.62 1.39 1.19 1.04 1.00 0.93 0.76 0.63 0.60 0.53 0.46 0.45 0.46 0.45 0.42 0.39
2.47 2.53 2.40 2.33 2.12 2.13 2.42 2.63 2.63 2.86 2.75 2.60 2.03 1.93 1.89 2.03 2.22 2.26 2.27 2.73 2.67 2.43 2.42 2.56 2.56 2.41 2.25 2.11 1.80 1.53 1.32 1.21 1.11 0.87 0.68 0.63 0.59 0.52 0.49 0.51 0.55 0.50 0.38
2.94 2.82 2.61 2.31 2.21 2.26 2.40 2.38 2.40 2.50 2.36 2.28 2.04 2.11 2.08 2.00 1.89 1.94 2.10 2.31 2.24 2.08 2.07 2.17 2.38 2.53 2.68 2.67 2.46 2.29 1.85 1.46 1.23 0.97 0.77 0.62 0.55 0.49 0.47 0.50 0.56 0.54 0.41
2.85 2.78 2.47 2.13 2.19 2.31 2.31 2.29 2.14 2.23 2.25 2.31 2.31 2.15 2.23 2.11 1.72 1.69 1.76 1.73 1.82 1.67 1.83 1.93 2.04 2.24 2.68 3.08 3.21 3.07 2.60 1.93 1.45 1.15 0.93 0.75 0.61 0.51 0.46 0.47 0.53 0.52 0.40
2.67 2.72 2.41 2.29 2.21 2.25 2.15 1.98 2.20 2.31 2.32 2.35 2.18 2.08 1.88 1.68 1.45 1.30 1.27 1.16 1.33 1.52 1.70 1.74 1.80 1.88 2.37 3.10 3.72 3.88 3.52 2.72 2.02 1.55 1.32 1.10 0.90 0.70 0.55 0.51 0.50 0.45 0.38
2.31 2.43 2.23 2.16 2.26 2.30 2.13 2.13 2.31 2.31 2.09 2.18 2.00 1.83 1.63 1.35 1.23 1.11 0.95 0.95 0.93 0.90 1.14 1.50 1.79 1.52 1.86 2.48 3.13 3.60 3.85 3.50 2.78 2.23 1.82 1.49 1.27 1.03 0.75 0.63 0.56 0.50 0.43
1.98 2.20 2.05 2.25 2.18 2.05 1.89 1.86 1.95 1.95 1.72 1.98 2.18 1.76 1.33 1.11 1.00 0.86 0.85 0.91 0.85 0.91 1.14 1.47 1.66 1.76 1.64 1.65 1.95 2.45 3.28 3.67 3.40 2.86 2.40 2.00 1.70 1.41 1.03 0.82 0.71 0.59 0.53
2.05 1.90 2.00 1.88 1.84 1.90 1.70 1.59 1.75 1.75 1.53 1.81 1.93 1.89 1.40 1.19 0.99 0.69 0.74 0.75 0.84 1.03 1.06 1.16 1.46 1.64 1.57 1.85 1.52 1.51 2.24 2.96 3.42 3.35 2.91 2.38 1.98 1.66 1.34 1.13 0.91 0.71 0.60
2.33 2.16 1.99 1.80 1.75 1.63 1.61 1.57 1.63 1.65 1.56 1.53 1.59 1.74 1.43 1.14 0.97 0.68 0.59 0.67 0.90 1.14 1.12 1.22 1.26 1.41 1.44 1.67 1.72 1.59 1.57 1.95 2.69 3.45 3.48 2.88 2.20 1.68 1.37 1.33 1.24 0.99 0.78
2.59 2.30 2.10 1.86 1.63 1.48 1.59 1.34 1.42 1.62 1.68 1.44 1.40 1.38 1.31 1.41 1.39 1.06 0.73 0.64 0.87 1.02 1.08 1.03 1.13 1.36 1.50 1.68 1.83 1.85 1.63 1.56 1.98 2.80 3.34 3.26 2.75 2.11 1.67 1.59 1.79 1.70 1.26
2.37 2.10 1.97 1.86 1.61 1.41 1.39 1.37 1.54 1.52 1.50 1.40 1.42 1.41 1.48 1.59 1.45 1.34 1.08 0.95 0.96 0.88 0.90 0.95 1.11 1.29 1.46 1.70 1.97 2.02 2.14 1.82 1.66 1.86 2.30 2.60 2.72 2.49 2.13 2.07 2.48 2.70 2.34
2.01 1.90 1.78 1.75 1.58 1.42 1.40 1.36 1.44 1.49 1.53 1.57 1.55 1.51 1.57 1.53 1.51 1.65 1.45 1.24 1.15 0.96 0.95 1.05 1.22 1.37 1.47 1.61 1.65 1.80 1.90 1.89 1.77 1.69 1.74 1.88 2.12 2.29 2.33 2.41 2.71 3.04 3.18
1.56 1.60 1.68 1.71 1.56 1.47 1.49 1.58 1.56 1.48 1.54 1.61 1.56 1.62 1.67 1.60 1.68 1.81 1.76 1.50 1.37 1.26 1.30 1.29 1.28 1.45 1.44 1.64 1.79 1.68 1.46 1.49 1.48 1.44 1.40 1.37 1.47 1.71 1.88 2.00 2.31 2.68 3.00
1.46 1.51 1.68 1.72 1.61 1.52 1.46 1.65 1.60 1.59 1.66 1.64 1.56 1.78 1.82 1.64 1.81 2.02 2.09 2.06 1.84 1.74 1.76 1.73 1.49 1.41 1.47 1.60 1.73 1.60 1.44 1.38 1.15 1.02 0.98 1.00 1.02 1.14 1.28 1.43 1.62 1.81 2.08
1.59 1.65 1.70 1.80 1.85 1.87 1.83 1.86 1.74 1.76 1.92 1.92 1.86 1.95 1.96 1.85 1.90 2.00 2.17 2.29 2.28 2.17 2.07 1.99 1.72 1.56 1.48 1.47 1.55 1.52 1.64 1.50 1.13 0.93 0.82 0.78 0.76 0.79 0.86 0.99 1.15 1.30 1.44
1.70 1.73 1.71 1.74 1.84 1.88 1.88 1.96 1.93 1.99 2.15 2.13 2.17 2.25 2.18 1.98 2.02 2.06 2.14 2.31 2.49 2.51 2.30 2.00 1.78 1.62 1.55 1.40 1.46 1.35 1.44 1.36 1.06 0.92 0.81 0.73 0.67 0.67 0.71 0.77 0.86 0.99 1.11
1.66 1.70 1.68 1.63 1.60 1.69 1.85 2.01 2.00 2.11 2.21 2.24 2.22 2.16 2.08 2.10 2.16 2.06 2.12 2.22 2.37 2.53 2.33 2.06 1.93 1.85 1.81 1.72 1.61 1.36 1.20 1.12 1.00 1.00 0.87 0.74 0.71 0.71 0.71 0.72 0.76 0.83 0.93
1.69 1.66 1.64 1.59 1.53 1.61 1.84 1.99 2.09 2.31 2.40 2.30 2.21 2.15 2.04 2.12 2.21 2.14 2.15 2.10 2.15 2.40 2.35 2.20 2.14 2.16 2.06 1.88 1.80 1.60 1.29 1.15 1.13 1.14 1.03 0.87 0.77 0.75 0.74 0.72 0.76 0.79 0.85
1.62 1.58 1.60 1.64 1.74 1.86 2.02 2.15 2.25 2.39 2.37 2.25 2.23 2.14 2.02 2.05 2.04 2.11 2.15 2.11 2.06 2.10 2.25 2.20 2.13 2.23 2.16 1.95 1.83 1.66 1.52 1.58 1.42 1.22 1.09 0.98 0.88 0.82 0.79 0.74 0.77 0.83 0.93
1.41 1.46 1.64 1.86 2.02 2.13 2.21 2.27 2.27 2.23 2.21 2.10 2.01 1.91 1.87 1.95 2.00 2.02 1.95 1.92 1.93 2.00 2.07 2.08 2.09 2.19 2.23 2.16 2.01 1.87 1.84 1.81 1.66 1.28 1.17 1.03 0.95 0.86 0.79 0.72 0.72 0.85 0.98
1.43 1.62 1.78 1.88 1.89 1.93 2.00 2.13 2.13 2.08 2.03 1.93 1.82 1.63 1.59 1.78 1.86 1.86 1.73 1.80 1.86 1.89 1.91 1.99 2.04 2.14 2.20 2.32 2.13 1.89 1.85 1.92 1.84 1.65 1.51 1.29 1.14 1.05 1.00 0.95 0.86 0.85 0.89
1.61 1.77 1.80 1.77 1.71 1.47 1.54 1.65 1.72 1.75 1.74 1.68 1.56 1.49 1.50 1.54 1.48 1.45 1.44 1.43 1.50 1.59 1.77 2.00 2.09 2.10 2.08 2.18 2.26 2.17 2.10 2.06 2.02 1.96 2.01 1.90 1.60 1.50 1.40 1.29 1.17 0.94 0.82
1.77 1.88 1.86 1.76 1.64 1.58 1.47 1.34 1.33 1.38 1.48 1.50 1.51 1.57 1.38 1.25 1.34 1.32 1.36 1.31 1.24 1.29 1.39 1.64 1.86 1.90 2.00 2.01 2.27 2.30 2.34 2.41 2.39 2.35 2.37 2.38 2.05 1.77 1.55 1.47 1.38 1.07 0.91
2.01 2.01 1.94 1.84 1.80 1.75 1.64 1.41 1.30 1.25 1.41 1.47 1.47 1.51 1.50 1.43 1.42 1.48 1.49 1.40 1.27 1.22 1.20 1.19 1.38 1.65 1.87 2.09 2.16 2.22 2.32 2.40 2.40 2.27 2.25 2.34 2.19 2.04 1.74 1.45 1.32 1.14 0.95
2.07 2.00 2.03 1.99 1.96 1.98 1.80 1.46 1.29 1.29 1.49 1.53 1.52 1.50 1.48 1.44 1.48 1.35 1.29 1.30 1.29 1.26 1.10 1.11 1.18 1.38 1.55 1.62 1.83 2.05 2.24 2.20 2.13 1.93 1.77 1.87 1.94 1.95 1.91 1.70 1.34 1.21 1.02
2.08 2.04 2.04 2.06 2.02 2.02 1.91 1.44 1.23 1.26 1.46 1.51 1.58 1.56 1.46 1.33 1.30 1.17 1.15 1.28 1.27 1.25 1.25 1.18 1.09 1.11 1.18 1.30 1.37 1.43 1.69 1.89 1.81 1.75 1.52 1.43 1.41 1.50 1.63 1.50 1.28 1.19 1.17

GEFSMA_prec_meanprecacc_192.txt.gz
Total_Precipitation_Accumulation
2.04 2.13 2.11 2.04 1.93 2.26 2.68 2.89 2.60 2.89 2.91 2.51 2.19 2.08 2.04 2.02 2.21 2.42 2.29 2.45 2.35 2.30 2.51 2.55 2.35 2.12 1.96 1.65 1.41 1.21 1.05 1.01 0.94 0.77 0.64 0.62 0.55 0.49 0.47 0.48 0.46 0.43 0.40
2.52 2.57 2.44 2.36 2.14 2.15 2.45 2.67 2.66 2.89 2.77 2.63 2.05 1.94 1.90 2.05 2.23 2.28 2.30 2.75 2.72 2.47 2.46 2.59 2.60 2.44 2.28 2.14 1.82 1.55 1.34 1.22 1.12 0.88 0.69 0.64 0.60 0.54 0.51 0.52 0.56 0.52 0.40
3.00 2.87 2.67 2.34 2.23 2.29 2.43 2.41 2.43 2.52 2.39 2.30 2.07 2.14 2.10 2.01 1.91 1.95 2.12 2.33 2.27 2.13 2.13 2.22 2.45 2.60 2.73 2.71 2.49 2.31 1.87 1.48 1.25 0.99 0.78 0.63 0.56 0.51 0.49 0.51 0.57 0.55 0.43
2.92 2.84 2.53 2.17 2.21 2.34 2.34 2.32 2.18 2.26 2.29 2.35 2.34 2.18 2.27 2.14 1.74 1.71 1.77 1.75 1.85 1.69 1.88 2.00 2.12 2.32 2.77 3.17 3.29 3.13 2.65 1.97 1.48 1.17 0.95 0.76 0.62 0.52 0.47 0.48 0.54 0.53 0.41
2.73 2.79 2.46 2.33 2.26 2.29 2.19 2.02 2.23 2.36 2.37 2.41 2.24 2.12 1.92 1.72 1.48 1.32 1.28 1.18 1.35 1.54 1.73 1.79 1.89 1.98 2.45 3.20 3.84 4.00 3.61 2.79 2.07 1.59 1.34 1.12 0.92 0.72 0.57 0.53 0.51 0.46 0.39
2.39 2.51 2.29 2.23 2.33 2.36 2.17 2.18 2.37 2.36 2.14 2.23 2.05 1.88 1.67 1.38 1.25 1.13 0.97 0.97 0.94 0.93 1.18 1.54 1.83 1.57 1.95 2.61 3.25 3.74 4.00 3.64 2.86 2.29 1.87 1.53 1.31 1.07 0.78 0.67 0.59 0.52 0.45
2.05 2.29 2.12 2.33 2.26 2.11 1.94 1.92 2.01 1.99 1.76 2.03 2.22 1.79 1.36 1.13 1.01 0.87 0.87 0.93 0.87 0.94 1.18 1.52 1.73 1.85 1.71 1.73 2.06 2.57 3.41 3.81 3.53 2.98 2.50 2.08 1.78 1.49 1.10 0.89 0.76 0.63 0.57
2.15 2.00 2.10 1.98 1.94 1.98 1.77 1.66 1.81 1.79 1.56 1.85 1.96 1.92 1.42 1.20 1.00 0.70 0.76 0.79 0.86 1.06 1.10 1.23 1.55 1.74 1.67 1.95 1.62 1.60 2.35 3.08 3.56 3.53 3.09 2.54 2.13 1.78 1.43 1.20 0.99 0.78 0.66
2.42 2.26 2.09 1.91 1.84 1.71 1.69 1.64 1.69 1.72 1.63 1.59 1.65 1.79 1.45 1.15 0.98 0.69 0.61 0.68 0.92 1.17 1.17 1.28 1.33 1.49 1.53 1.78 1.82 1.68 1.64 2.02 2.79 3.62 3.70 3.09 2.38 1.81 1.47 1.42 1.35 1.10 0.89
2.66 2.39 2.18 1.95 1.73 1.58 1.68 1.41 1.49 1.69 1.75 1.50 1.48 1.44 1.36 1.44 1.41 1.07 0.75 0.66 0.89 1.05 1.12 1.07 1.17 1.40 1.56 1.76 1.91 1.93 1.68 1.61 2.05 2.92 3.48 3.41 2.89 2.24 1.82 1.75 1.92 1.81 1.37
2.45 2.16 2.04 1.96 1.75 1.56 1.51 1.46 1.60 1.58 1.56 1.47 1.49 1.48 1.57 1.66 1.50 1.37 1.09 0.96 0.98 0.91 0.93 0.99 1.16 1.33 1.51 1.76 2.05 2.09 2.21 1.90 1.74 1.95 2.40 2.73 2.85 2.60 2.24 2.18 2.58 2.80 2.44
2.07 1.97 1.88 1.85 1.71 1.56 1.52 1.47 1.54 1.59 1.62 1.65 1.62 1.58 1.64 1.60 1.60 1.74 1.52 1.31 1.22 1.04 1.02 1.12 1.28 1.43 1.53 1.67 1.71 1.87 1.97 1.98 1.87 1.78 1.83 1.99 2.25 2.43 2.48 2.55 2.84 3.17 3.28
1.63 1.66 1.74 1.80 1.66 1.57 1.63 1.73 1.68 1.59 1.63 1.69 1.64 1.69 1.73 1.66 1.74 1.88 1.84 1.60 1.46 1.35 1.39 1.37 1.35 1.53 1.52 1.71 1.87 1.76 1.52 1.56 1.57 1.55 1.51 1.47 1.56 1.81 2.00 2.12 2.43 2.79 3.10
1.51 1.57 1.73 1.78 1.68 1.60 1.55 1.77 1.74 1.72 1.75 1.72 1.63 1.85 1.88 1.69 1.86 2.07 2.17 2.15 1.92 1.82 1.85 1.81 1.56 1.50 1.56 1.69 1.83 1.71 1.54 1.47 1.24 1.14 1.10 1.13 1.16 1.24 1.37 1.53 1.72 1.91 2.18
1.62 1.70 1.74 1.85 1.90 1.92 1.90 1.97 1.89 1.90 2.03 2.01 1.95 2.03 2.03 1.92 1.96 2.07 2.25 2.38 2.38 2.25 2.13 2.05 1.79 1.62 1.56 1.55 1.65 1.61 1.72 1.60 1.22 1.02 0.93 0.90 0.90 0.93 1.00 1.11 1.25 1.41 1.54
1.73 1.77 1.76 1.79 1.89 1.95 1.96 2.04 2.01 2.08 2.26 2.27 2.32 2.39 2.28 2.07 2.11 2.14 2.22 2.40 2.59 2.61 2.39 2.07 1.85 1.68 1.62 1.47 1.53 1.41 1.50 1.43 1.11 0.97 0.88 0.82 0.77 0.78 0.83 0.88 0.96 1.10 1.21
1.70 1.74 1.74 1.70 1.67 1.75 1.92 2.07 2.06 2.20 2.31 2.36 2.37 2.30 2.20 2.21 2.26 2.16 2.23 2.33 2.50 2.67 2.46 2.16 2.01 1.93 1.88 1.79 1.67 1.42 1.25 1.17 1.05 1.06 0.93 0.82 0.80 0.81 0.84 0.88 0.93 1.00 1.08
1.77 1.74 1.71 1.66 1.60 1.66 1.89 2.04 2.16 2.39 2.49 2.41 2.32 2.27 2.16 2.26 2.34 2.26 2.26 2.21 2.26 2.51 2.46 2.30 2.22 2.23 2.13 1.95 1.86 1.66 1.34 1.20 1.18 1.21 1.11 0.96 0.87 0.87 0.87 0.88 0.93 0.97 1.04
1.69 1.63 1.64 1.69 1.79 1.90 2.06 2.19 2.30 2.44 2.41 2.30 2.31 2.23 2.10 2.12 2.10 2.16 2.21 2.17 2.12 2.17 2.31 2.26 2.19 2.28 2.22 2.01 1.90 1.72 1.57 1.63 1.47 1.29 1.18 1.07 0.99 0.94 0.92 0.87 0.89 0.96 1.06
1.45 1.50 1.68 1.90 2.06 2.17 2.26 2.32 2.31 2.26 2.24 2.14 2.06 1.98 1.96 2.02 2.05 2.05 1.99 1.97 1.98 2.06 2.13 2.14 2.15 2.26 2.28 2.21 2.06 1.92 1.88 1.86 1.71 1.35 1.25 1.12 1.02 0.93 0.87 0.81 0.83 0.97 1.11
1.46 1.66 1.83 1.93 1.95 1.99 2.06 2.18 2.18 2.12 2.07 1.97 1.85 1.68 1.68 1.92 1.99 1.94 1.79 1.86 1.93 1.97 1.99 2.07 2.13 2.24 2.29 2.39 2.19 1.95 1.91 1.98 1.89 1.69 1.54 1.32 1.18 1.08 1.04 1.00 0.94 0.95 1.01
1.62 1.79 1.83 1.82 1.76 1.52 1.59 1.70 1.75 1.77 1.77 1.72 1.60 1.53 1.56 1.65 1.64 1.60 1.56 1.56 1.61 1.69 1.86 2.09 2.20 2.21 2.18 2.26 2.33 2.23 2.16 2.12 2.08 2.01 2.06 1.95 1.65 1.55 1.45 1.34 1.22 0.99 0.88
1.79 1.90 1.88 1.83 1.74 1.66 1.53 1.38 1.36 1.40 1.52 1.53 1.55 1.60 1.41 1.30 1.42 1.42 1.46 1.40 1.34 1.39 1.49 1.72 1.92 1.97 2.06 2.07 2.32 2.35 2.38 2.46 2.44 2.40 2.42 2.43 2.10 1.83 1.62 1.53 1.43 1.13 0.96
2.03 2.04 1.98 1.89 1.87 1.82 1.71 1.47 1.37 1.32 1.47 1.52 1.50 1.53 1.52 1.45 1.44 1.52 1.54 1.45 1.32 1.28 1.26 1.23 1.42 1.68 1.90 2.12 2.19 2.25 2.35 2.42 2.42 2.29 2.27 2.37 2.23 2.09 1.79 1.50 1.37 1.19 1.01
2.12 2.07 2.10 2.05 2.01 2.04 1.86 1.51 1.34 1.34 1.52 1.55 1.54 1.51 1.49 1.45 1.49 1.36 1.32 1.32 1.31 1.27 1.11 1.12 1.20 1.39 1.56 1.63 1.84 2.06 2.25 2.22 2.15 1.96 1.81 1.92 2.00 2.02 1.98 1.76 1.40 1.28 1.09
2.15 2.11 2.11 2.13 2.08 2.08 1.98 1.48 1.25 1.27 1.47 1.52 1.59 1.57 1.47 1.34 1.31 1.18 1.15 1.29 1.27 1.25 1.25 1.18 1.09 1.11 1.18 1.30 1.37 1.43 1.70 1.90 1.82 1.76 1.54 1.46 1.45 1.56 1.71 1.58 1.35 1.26 1.22

GEFSMA_prec_meanprecacc_198.txt.gz
Total_Precipitation_Accumulation
2.07 2.15 2.14 2.08 1.97 2.30 2.71 2.93 2.65 2.93 2.95 2.55 2.21 2.09 2.07 2.04 2.23 2.44 2.32 2.47 2.38 2.33 2.55 2.59 2.39 2.17 2.02 1.68 1.43 1.23 1.07 1.02 0.95 0.78 0.65 0.63 0.57 0.50 0.48 0.48 0.47 0.44 0.41
2.58 2.63 2.49 2.41 2.20 2.21 2.50 2.71 2.70 2.93 2.82 2.67 2.07 1.95 1.91 2.06 2.24 2.30 2.33 2.79 2.75 2.49 2.48 2.62 2.64 2.49 2.33 2.18 1.85 1.57 1.36 1.23 1.13 0.90 0.70 0.65 0.61 0.56 0.52 0.53 0.57 0.52 0.41
3.09 2.97 2.75 2.42 2.30 2.35 2.50 2.47 2.49 2.56 2.42 2.34 2.10 2.17 2.12 2.03 1.92 1.99 2.15 2.37 2.31 2.16 2.16 2.27 2.52 2.67 2.79 2.78 2.56 2.36 1.91 1.52 1.28 1.02 0.79 0.64 0.57 0.52 0.50 0.52 0.58 0.56 0.43
3.01 2.94 2.63 2.25 2.32 2.42 2.41 2.41 2.27 2.33 2.35 2.40 2.40 2.23 2.30 2.17 1.77 1.75 1.80 1.77 1.88 1.73 1.92 2.07 2.19 2.40 2.84 3.23 3.37 3.23 2.72 2.03 1.54 1.21 0.98 0.78 0.64 0.53 0.48 0.48 0.55 0.54 0.42
2.84 2.90 2.57 2.44 2.41 2.42 2.28 2.09 2.34 2.47 2.46 2.48 2.29 2.18 1.96 1.76 1.53 1.35 1.30 1.19 1.39 1.58 1.78 1.84 1.94 2.04 2.52 3.29 3.95 4.13 3.75 2.90 2.16 1.66 1.40 1.16 0.95 0.74 0.59 0.55 0.53 0.47 0.40
2.48 2.63 2.40 2.33 2.45 2.49 2.30 2.31 2.52 2.52 2.26 2.33 2.10 1.92 1.72 1.43 1.29 1.15 0.99 0.98 0.97 0.95 1.21 1.59 1.90 1.63 2.00 2.68 3.34 3.85 4.16 3.82 3.03 2.41 1.96 1.60 1.38 1.14 0.85 0.73 0.64 0.56 0.49
2.14 2.40 2.22 2.44 2.37 2.24 2.07 2.06 2.15 2.15 1.89 2.13 2.31 1.87 1.41 1.17 1.04 0.89 0.89 0.96 0.90 0.96 1.21 1.59 1.82 1.94 1.80 1.79 2.11 2.64 3.52 3.95 3.69 3.13 2.64 2.22 1.90 1.60 1.21 1.00 0.87 0.74 0.66
2.25 2.09 2.20 2.07 2.03 2.09 1.90 1.80 1.94 1.94 1.69 1.97 2.09 2.03 1.50 1.27 1.03 0.71 0.77 0.81 0.89 1.09 1.15 1.29 1.62 1.84 1.77 2.05 1.68 1.65 2.42 3.19 3.70 3.68 3.23 2.67 2.25 1.89 1.54 1.31 1.09 0.87 0.76
2.50 2.33 2.16 1.99 1.93 1.79 1.80 1.79 1.84 1.84 1.75 1.74 1.81 1.96 1.55 1.23 1.03 0.71 0.62 0.70 0.96 1.23 1.23 1.33 1.37 1.54 1.60 1.85 1.89 1.73 1.68 2.07 2.86 3.72 3.83 3.21 2.50 1.92 1.57 1.53 1.45 1.20 1.00
2.73 2.45 2.24 2.03 1.83 1.67 1.79 1.54 1.61 1.82 1.88 1.63 1.61 1.59 1.49 1.56 1.49 1.12 0.79 0.70 0.93 1.11 1.18 1.11 1.20 1.44 1.61 1.83 1.98 1.99 1.72 1.64 2.09 2.99 3.58 3.53 3.01 2.36 1.92 1.86 2.04 1.93 1.50
2.50 2.20 2.09 2.03 1.84 1.65 1.61 1.57 1.73 1.73 1.69 1.60 1.62 1.58 1.67 1.77 1.61 1.48 1.18 1.05 1.08 1.00 1.01 1.05 1.20 1.37 1.56 1.82 2.12 2.15 2.27 1.95 1.78 1.99 2.45 2.81 2.95 2.70 2.34 2.28 2.70 2.95 2.60
2.12 2.01 1.93 1.93 1.79 1.65 1.61 1.57 1.66 1.72 1.75 1.77 1.72 1.66 1.71 1.69 1.69 1.85 1.62 1.42 1.35 1.15 1.10 1.18 1.34 1.48 1.58 1.73 1.77 1.93 2.03 2.06 1.94 1.85 1.89 2.05 2.32 2.51 2.57 2.66 2.96 3.32 3.46
1.69 1.71 1.78 1.85 1.70 1.63 1.69 1.79 1.74 1.66 1.73 1.81 1.74 1.78 1.81 1.74 1.83 1.99 1.95 1.69 1.56 1.43 1.47 1.45 1.43 1.58 1.56 1.75 1.92 1.83 1.59 1.63 1.63 1.61 1.57 1.54 1.62 1.87 2.08 2.24 2.57 2.95 3.28
1.54 1.59 1.75 1.82 1.73 1.64 1.59 1.82 1.80 1.79 1.85 1.83 1.73 1.94 1.97 1.78 1.96 2.16 2.26 2.25 2.01 1.89 1.93 1.91 1.64 1.56 1.61 1.73 1.89 1.77 1.60 1.53 1.29 1.19 1.16 1.19 1.22 1.31 1.45 1.63 1.84 2.05 2.34
1.63 1.71 1.76 1.90 1.94 1.96 1.94 2.02 1.94 1.96 2.11 2.09 2.03 2.12 2.13 2.00 2.04 2.14 2.34 2.48 2.48 2.33 2.22 2.14 1.87 1.69 1.63 1.61 1.71 1.67 1.78 1.66 1.27 1.06 0.98 0.95 0.95 0.99 1.06 1.20 1.37 1.52 1.66
1.75 1.78 1.78 1.82 1.91 1.99 2.01 2.10 2.06 2.13 2.31 2.32 2.38 2.46 2.35 2.13 2.18 2.22 2.31 2.50 2.69 2.71 2.48 2.16 1.93 1.75 1.70 1.55 1.60 1.48 1.57 1.51 1.18 1.04 0.93 0.86 0.81 0.82 0.87 0.93 1.03 1.18 1.31
1.72 1.76 1.76 1.72 1.70 1.80 1.97 2.11 2.09 2.24 2.36 2.41 2.42 2.35 2.26 2.28 2.36 2.28 2.36 2.47 2.63 2.79 2.56 2.25 2.09 2.02 2.00 1.90 1.78 1.52 1.34 1.24 1.11 1.13 0.99 0.86 0.83 0.85 0.89 0.94 0.99 1.06 1.16
1.79 1.75 1.72 1.69 1.63 1.70 1.93 2.08 2.20 2.45 2.56 2.48 2.39 2.35 2.24 2.34 2.44 2.38 2.40 2.35 2.39 2.63 2.56 2.39 2.31 2.33 2.25 2.05 1.95 1.74 1.41 1.27 1.25 1.28 1.16 1.00 0.93 0.92 0.93 0.94 1.00 1.04 1.12
1.71 1.66 1.66 1.71 1.82 1.92 2.10 2.24 2.35 2.51 2.47 2.37 2.37 2.29 2.18 2.21 2.19 2.25 2.29 2.25 2.20 2.25 2.40 2.36 2.28 2.37 2.31 2.10 2.00 1.81 1.67 1.76 1.59 1.39 1.25 1.13 1.04 0.99 0.97 0.93 0.97 1.04 1.15
1.46 1.52 1.70 1.92 2.09 2.21 2.31 2.37 2.37 2.33 2.29 2.18 2.11 2.02 2.01 2.08 2.15 2.17 2.10 2.07 2.07 2.14 2.21 2.23 2.26 2.36 2.37 2.31 2.15 2.01 2.01 1.98 1.82 1.44 1.33 1.19 1.09 0.99 0.92 0.86 0.88 1.02 1.17
1.46 1.67 1.84 1.94 1.97 2.03 2.10 2.23 2.23 2.15 2.10 2.00 1.89 1.71 1.73 1.98 2.09 2.06 1.90 1.97 2.04 2.08 2.12 2.19 2.24 2.33 2.38 2.49 2.27 2.01 1.98 2.06 1.97 1.77 1.62 1.40 1.27 1.15 1.11 1.06 0.99 1.00 1.06
1.63 1.80 1.84 1.82 1.78 1.54 1.62 1.74 1.79 1.81 1.80 1.75 1.64 1.57 1.58 1.68 1.68 1.68 1.65 1.64 1.72 1.81 1.97 2.19 2.28 2.29 2.26 2.34 2.41 2.29 2.21 2.18 2.14 2.07 2.12 2.02 1.71 1.62 1.52 1.40 1.28 1.04 0.92
1.80 1.92 1.90 1.85 1.75 1.68 1.56 1.42 1.39 1.44 1.55 1.56 1.58 1.63 1.43 1.31 1.44 1.46 1.55 1.51 1.46 1.53 1.64 1.87 2.07 2.09 2.16 2.16 2.38 2.39 2.42 2.50 2.49 2.45 2.46 2.48 2.15 1.87 1.66 1.58 1.47 1.16 0.99
2.04 2.05 2.00 1.92 1.89 1.83 1.72 1.50 1.40 1.35 1.49 1.53 1.53 1.55 1.53 1.46 1.45 1.54 1.58 1.51 1.39 1.36 1.33 1.29 1.49 1.76 1.95 2.17 2.23 2.28 2.37 2.44 2.44 2.31 2.29 2.39 2.25 2.11 1.80 1.52 1.39 1.20 1.02
2.15 2.10 2.13 2.07 2.03 2.05 1.89 1.54 1.37 1.36 1.53 1.56 1.56 1.53 1.50 1.46 1.50 1.37 1.33 1.34 1.34 1.31 1.15 1.14 1.22 1.42 1.59 1.65 1.85 2.08 2.26 2.23 2.17 1.97 1.82 1.93 2.01 2.03 1.99 1.77 1.41 1.29 1.10
2.17 2.13 2.13 2.17 2.11 2.11 2.01 1.52 1.29 1.29 1.48 1.53 1.60 1.57 1.47 1.35 1.31 1.18 1.16 1.29 1.28 1.26 1.26 1.19 1.10 1.12 1.19 1.31 1.37 1.44 1.71 1.90 1.83 1.78 1.56 1.48 1.47 1.57 1.73 1.60 1.37 1.28 1.24

GEFSMA_prec_meanprecacc_204.txt.gz
Total_Precipitation_Accumulation
2.14 2.22 2.22 2.18 2.03 2.36 2.78 3.01 2.71 2.99 3.00 2.58 2.24 2.11 2.10 2.06 2.24 2.45 2.33 2.48 2.39 2.34 2.56 2.60 2.41 2.19 2.03 1.69 1.43 1.23 1.08 1.03 0.96 0.79 0.66 0.64 0.58 0.51 0.49 0.49 0.47 0.44 0.42
2.67 2.72 2.58 2.49 2.26 2.27 2.57 2.77 2.74 2.99 2.88 2.71 2.10 1.97 1.94 2.08 2.25 2.32 2.36 2.81 2.76 2.50 2.50 2.65 2.68 2.53 2.37 2.21 1.87 1.58 1.37 1.24 1.15 0.92 0.72 0.66 0.63 0.57 0.53 0.55 0.58 0.53 0.42
3.18 3.07 2.87 2.51 2.37 2.42 2.57 2.53 2.55 2.60 2.46 2.38 2.13 2.18 2.13 2.05 1.96 2.03 2.18 2.40 2.34 2.18 2.17 2.29 2.56 2.71 2.85 2.84 2.61 2.42 1.95 1.53 1.30 1.04 0.81 0.66 0.59 0.53 0.52 0.54 0.60 0.58 0.46
3.08 3.03 2.74 2.35 2.43 2.50 2.48 2.50 2.34 2.39 2.41 2.45 2.43 2.25 2.32 2.19 1.79 1.77 1.84 1.82 1.94 1.77 1.94 2.09 2.22 2.44 2.90 3.31 3.47 3.33 2.79 2.08 1.57 1.25 1.03 0.82 0.67 0.57 0.51 0.51 0.58 0.57 0.45
2.89 2.98 2.68 2.56 2.52 2.51 2.36 2.15 2.44 2.58 2.60 2.60 2.35 2.21 1.98 1.77 1.54 1.37 1.33 1.23 1.43 1.62 1.82 1.87 1.97 2.08 2.58 3.37 4.06 4.23 3.84 2.98 2.22 1.73 1.47 1.21 0.99 0.79 0.65 0.61 0.58 0.52 0.43
2.54 2.71 2.48 2.43 2.54 2.60 2.40 2.40 2.65 2.66 2.40 2.45 2.16 2.00 1.79 1.46 1.31 1.17 1.02 1.01 0.99 0.98 1.25 1.66 2.02 1.73 2.08 2.75 3.41 3.94 4.25 3.92 3.13 2.52 2.06 1.69 1.47 1.24 0.95 0.84 0.75 0.66 0.56
2.20 2.48 2.27 2.53 2.45 2.32 2.16 2.16 2.27 2.30 2.03 2.26 2.44 1.97 1.49 1.23 1.10 0.94 0.94 1.01 0.95 1.02 1.28 1.68 1.94 2.06 1.92 1.88 2.18 2.72 3.61 4.06 3.81 3.24 2.77 2.35 2.03 1.72 1.32 1.10 0.99 0.87 0.80
2.31 2.15 2.28 2.14 2.10 2.18 1.99 1.90 2.08 2.08 1.83 2.14 2.24 2.20 1.67 1.42 1.14 0.78 0.86 0.91 0.98 1.17 1.23 1.37 1.71 1.95 1.90 2.18 1.76 1.73 2.51 3.28 3.81 3.79 3.34 2.78 2.35 1.98 1.63 1.40 1.19 0.96 0.84
2.55 2.41 2.27 2.07 2.00 1.86 1.90 1.92 1.97 1.98 1.88 1.89 1.96 2.13 1.73 1.41 1.19 0.83 0.77 0.85 1.06 1.31 1.31 1.41 1.45 1.64 1.70 1.97 2.02 1.85 1.76 2.14 2.93 3.81 3.92 3.29 2.57 1.99 1.65 1.62 1.54 1.28 1.07
2.77 2.49 2.29 2.09 1.90 1.75 1.89 1.63 1.72 1.97 2.02 1.77 1.77 1.74 1.64 1.72 1.67 1.30 0.92 0.80 1.02 1.19 1.27 1.21 1.30 1.52 1.70 1.94 2.09 2.08 1.80 1.70 2.14 3.04 3.64 3.59 3.06 2.41 1.98 1.93 2.14 2.03 1.60
2.54 2.24 2.13 2.09 1.91 1.74 1.72 1.68 1.90 1.89 1.85 1.76 1.79 1.77 1.85 1.95 1.79 1.66 1.34 1.18 1.19 1.10 1.11 1.15 1.27 1.42 1.63 1.92 2.23 2.25 2.36 2.02 1.83 2.02 2.49 2.86 3.00 2.76 2.41 2.37 2.81 3.07 2.72
2.19 2.05 1.98 2.00 1.86 1.74 1.71 1.68 1.78 1.84 1.90 1.94 1.93 1.87 1.90 1.86 1.87 2.04 1.78 1.59 1.52 1.26 1.19 1.25 1.40 1.54 1.66 1.83 1.90 2.07 2.14 2.15 2.01 1.92 1.94 2.10 2.37 2.58 2.65 2.75 3.05 3.43 3.58
1.74 1.76 1.84 1.92 1.78 1.71 1.77 1.87 1.82 1.76 1.84 1.94 1.89 1.92 1.95 1.88 1.98 2.14 2.09 1.84 1.70 1.53 1.56 1.54 1.50 1.66 1.64 1.87 2.08 1.97 1.67 1.71 1.72 1.67 1.62 1.58 1.66 1.91 2.14 2.31 2.65 3.05 3.40
1.58 1.63 1.82 1.88 1.79 1.70 1.66 1.91 1.90 1.90 1.96 1.94 1.83 2.06 2.08 1.89 2.07 2.28 2.38 2.38 2.14 2.01 2.05 2.02 1.75 1.65 1.70 1.84 2.05 1.89 1.68 1.62 1.35 1.23 1.20 1.23 1.25 1.34 1.48 1.69 1.91 2.12 2.43
1.66 1.74 1.80 1.94 1.98 2.02 2.02 2.13 2.06 2.06 2.21 2.18 2.12 2.24 2.24 2.11 2.14 2.25 2.47 2.63 2.67 2.50 2.39 2.32 2.02 1.81 1.74 1.73 1.84 1.77 1.86 1.74 1.34 1.12 1.02 0.98 0.97 1.01 1.09 1.23 1.40 1.56 1.70
1.78 1.80 1.80 1.85 1.95 2.03 2.08 2.19 2.17 2.23 2.40 2.41 2.46 2.55 2.44 2.21 2.25 2.31 2.45 2.67 2.89 2.92 2.68 2.34 2.12 1.93 1.84 1.65 1.69 1.57 1.65 1.58 1.24 1.09 0.98 0.91 0.86 0.86 0.90 0.95 1.06 1.22 1.35
1.75 1.79 1.78 1.75 1.73 1.85 2.02 2.19 2.18 2.33 2.45 2.50 2.50 2.42 2.33 2.35 2.44 2.35 2.45 2.60 2.80 3.00 2.77 2.44 2.30 2.23 2.17 2.01 1.86 1.59 1.42 1.32 1.19 1.20 1.05 0.92 0.89 0.89 0.92 0.97 1.02 1.09 1.19
1.83 1.80 1.76 1.73 1.67 1.75 1.99 2.16 2.29 2.55 2.67 2.58 2.48 2.44 2.33 2.41 2.51 2.46 2.50 2.49 2.55 2.80 2.74 2.56 2.50 2.52 2.39 2.16 2.05 1.83 1.51 1.35 1.32 1.36 1.22 1.07 0.99 0.98 0.98 0.98 1.04 1.09 1.16
1.76 1.71 1.72 1.75 1.86 1.96 2.16 2.31 2.42 2.61 2.58 2.46 2.46 2.38 2.26 2.29 2.26 2.32 2.36 2.33 2.29 2.35 2.53 2.49 2.42 2.50 2.41 2.20 2.12 1.95 1.79 1.84 1.66 1.48 1.34 1.20 1.11 1.05 1.03 0.98 1.02 1.09 1.20
1.50 1.55 1.74 1.96 2.13 2.25 2.35 2.41 2.41 2.39 2.38 2.28 2.19 2.10 2.08 2.15 2.22 2.24 2.16 2.13 2.16 2.25 2.33 2.36 2.37 2.47 2.49 2.45 2.30 2.15 2.12 2.08 1.91 1.50 1.38 1.22 1.12 1.02 0.95 0.90 0.92 1.07 1.22
1.48 1.69 1.87 1.98 2.02 2.07 2.14 2.27 2.28 2.21 2.16 2.06 1.94 1.76 1.77 2.02 2.13 2.10 1.95 2.03 2.12 2.20 2.25 2.35 2.40 2.49 2.55 2.66 2.42 2.14 2.08 2.15 2.04 1.82 1.65 1.43 1.30 1.19 1.14 1.09 1.02 1.04 1.10
1.64 1.82 1.87 1.85 1.81 1.58 1.67 1.79 1.84 1.85 1.84 1.79 1.68 1.60 1.61 1.71 1.71 1.71 1.70 1.70 1.76 1.86 2.06 2.31 2.44 2.44 2.40 2.48 2.52 2.38 2.28 2.23 2.20 2.13 2.16 2.05 1.75 1.65 1.56 1.44 1.31 1.08 0.95
1.82 1.94 1.92 1.88 1.78 1.71 1.60 1.47 1.44 1.47 1.58 1.60 1.61 1.66 1.46 1.34 1.46 1.49 1.57 1.53 1.48 1.56 1.69 1.94 2.15 2.17 2.24 2.24 2.47 2.46 2.48 2.54 2.53 2.49 2.49 2.51 2.17 1.89 1.69 1.61 1.51 1.18 1.01
2.06 2.07 2.02 1.94 1.90 1.85 1.74 1.51 1.42 1.36 1.50 1.55 1.55 1.57 1.55 1.48 1.46 1.55 1.60 1.53 1.41 1.37 1.35 1.33 1.54 1.82 2.03 2.22 2.27 2.32 2.40 2.47 2.47 2.33 2.31 2.41 2.27 2.12 1.82 1.54 1.41 1.23 1.05
2.17 2.12 2.14 2.09 2.04 2.06 1.90 1.55 1.38 1.36 1.54 1.58 1.57 1.54 1.51 1.47 1.50 1.38 1.34 1.36 1.35 1.31 1.17 1.17 1.24 1.45 1.64 1.68 1.87 2.09 2.29 2.26 2.20 2.00 1.84 1.95 2.02 2.04 2.00 1.78 1.42 1.30 1.11
2.19 2.15 2.15 2.18 2.12 2.11 2.01 1.52 1.30 1.30 1.49 1.54 1.61 1.58 1.48 1.36 1.32 1.19 1.17 1.31 1.29 1.27 1.26 1.19 1.11 1.13 1.20 1.33 1.39 1.45 1.73 1.93 1.85 1.80 1.57 1.49 1.48 1.59 1.76 1.63 1.38 1.29 1.24